Bloomington, IL

2:53 AM CDT on August 20, 2017 (GMT -0500)
Central Ill Regional

Weather History for KBMI - August, 2013

Change the Weather History Date:

Friday, August 16, 2013

  Actual Average Record
Temperature  
Mean Temperature 70 °F -  
Max Temperature 79 °F 91 °F 91 °F (1978)
Min Temperature 61 °F 64 °F 53 °F (2004)
Cooling Degree Days 5    
Growing Degree Days 20 (Base 50)    
Moisture  
Dew Point 55 °F    
Average Humidity 61    
Maximum Humidity 78    
Minimum Humidity 35    
Precipitation  
Precipitation 0.00 in - - ()
Sea Level Pressure  
Sea Level Pressure 30.16 in    
Wind  
Wind Speed 5 mph (East)    
Max Wind Speed 13 mph    
Max Gust Speed -    
Visibility 10 miles    
Events      
Averages and records for this station are not official NWS values.
T = Trace of Precipitation, MM = Missing Value Source: NWS Daily Summary

Daily Weather History Graph

Daily Weather History Graph

Search for Another Location

Airport or City:

Trip Planner

Search our weather history database for the weather conditions in past years. The results will help you decide how hot, cold, wet, or windy it might be!

Date:

Astronomy

Aug. 16, 2013 Rise Set
Actual Time 6:07 AM CDT 7:51 PM CDT
Civil Twilight 5:38 AM CDT 8:20 PM CDT
Nautical Twilight 5:03 AM CDT 8:55 PM CDT
Astronomical Twilight 4:25 AM CDT 9:33 PM CDT
Moon 4:10 PM CDT (8/16) 1:09 AM CDT (8/16)
Length of Visible Light 14h 42m
Length of Day
13h 43m
Waxing Gibbous, 75% of the Moon is Illuminated
Aug 16
Waxing Gibbous
Aug 20
Full
Aug 28
Last Quarter
Sep 5
New
Sep 12
First Quarter

Hourly Weather History & Observations

Time (CDT) Temp. Dew Point Humidity Pressure Visibility Wind Dir Wind Speed Gust Speed Precip Events Conditions
12:56 AM 63.0 °F 54.9 °F 75% 30.14 in 10.0 mi SSE 3.5 mph - N/A   Clear
1:56 AM 63.9 °F 54.9 °F 72% 30.13 in 10.0 mi Calm Calm - N/A   Partly Cloudy
2:56 AM 64.9 °F 54.0 °F 68% 30.13 in 10.0 mi Calm Calm - N/A   Mostly Cloudy
3:56 AM 61.9 °F 54.9 °F 78% 30.14 in 10.0 mi NE 5.8 mph - N/A   Partly Cloudy
4:56 AM 63.0 °F 54.9 °F 75% 30.13 in 10.0 mi North 3.5 mph - N/A   Mostly Cloudy
5:56 AM 63.0 °F 54.9 °F 75% 30.15 in 10.0 mi NNW 4.6 mph - N/A   Scattered Clouds
6:56 AM 63.0 °F 55.9 °F 78% 30.16 in 10.0 mi NE 5.8 mph - N/A   Clear
7:56 AM 63.0 °F 55.9 °F 78% 30.17 in 10.0 mi NE 5.8 mph - N/A   Clear
8:56 AM 68.0 °F 56.8 °F 67% 30.18 in 10.0 mi ENE 8.1 mph - N/A   Clear
9:56 AM 70.9 °F 56.8 °F 61% 30.17 in 10.0 mi ENE 9.2 mph - N/A   Clear
10:56 AM 73.9 °F 55.9 °F 53% 30.18 in 10.0 mi NE 8.1 mph - N/A   Clear
11:56 AM 75.9 °F 54.9 °F 48% 30.18 in 10.0 mi ENE 5.8 mph - N/A   Scattered Clouds
12:56 PM 77.9 °F 54.9 °F 45% 30.16 in 10.0 mi ENE 12.7 mph - N/A   Mostly Cloudy
1:56 PM 77.9 °F 54.0 °F 43% 30.16 in 10.0 mi NE 9.2 mph - N/A   Mostly Cloudy
2:56 PM 79.0 °F 52.9 °F 40% 30.14 in 10.0 mi East 8.1 mph - N/A   Scattered Clouds
3:56 PM 79.9 °F 50.0 °F 35% 30.14 in 10.0 mi East 9.2 mph - N/A   Scattered Clouds
4:56 PM 79.0 °F 50.9 °F 37% 30.14 in 10.0 mi ENE 8.1 mph - N/A   Partly Cloudy
5:56 PM 77.9 °F 54.0 °F 43% 30.14 in 10.0 mi East 6.9 mph - N/A   Partly Cloudy
6:56 PM 72.9 °F 54.9 °F 53% 30.14 in 10.0 mi SE 3.5 mph - N/A   Scattered Clouds
7:56 PM 70.9 °F 54.9 °F 57% 30.15 in 10.0 mi SSE 4.6 mph - N/A   Partly Cloudy
8:56 PM 68.9 °F 54.9 °F 61% 30.17 in 10.0 mi SE 4.6 mph - N/A   Clear
9:56 PM 63.9 °F 55.9 °F 75% 30.17 in 10.0 mi SE 4.6 mph - N/A   Partly Cloudy
10:56 PM 63.0 °F 54.0 °F 72% 30.18 in 10.0 mi SSE 3.5 mph - N/A   Clear
11:56 PM 63.0 °F 52.9 °F 70% 30.18 in 10.0 mi SE 4.6 mph - N/A   Clear